Location: Eaton Estates
(41.3089°N, 82.0057°W)
Time: 13:14:04
(UTC+00:00)

Cosmos 1452 Rocket - Pass Details

Date: 17 June 2021
Orbit: 768 x 774 km, 74.1° (Epoch: 26 July)

Event Time Altitude Azimuth Distance (km) Brightness Sun altitude
Rises 01:53:09 0° 181° (S) 3,234 6.3 -8.3°
Reaches altitude 10° 01:55:36 10° 175° (S) 2,311 5.6 -8.6°
Maximum altitude 02:00:35 46° 103° (ESE) 1,035 3.8 -9.3°
Drops below altitude 10° 02:05:36 10° 32° (NNE) 2,325 6.2 -10.0°
Sets 02:08:04 0° 26° (NNE) 3,256 7.0 -10.3°
